Home

MP3/FLAC - Release Name, 95 releases = 12,07 GB
 Vanir-Sagas-(PMZ365CD)-CD-2022-FERiCE 122,45 MB FERiCE 2022-11-29
 Veonity-Elements_Of_Power-(SC_406-2)-CD-2022-FERiCE 90,55 MB FERiCE 2022-11-29
 Virtual_Symmetry-Virtual_Symmetry-(SR3091)-CD-2022-FERiCE 127,22 MB FERiCE 2022-11-29
 KARA-MOVE_AGAIN-WEB-KR-2022-HUNNiT 31,56 MB HUNNiT 2022-11-29
 I_Micronauti-Daitarn_III-(TRS_1005)-VINYL-1979-B2A_INT 12,31 MB B2A_INT 2022-11-29
 Philosophobia-Philosophobia-(SR3090)-CD-2022-FERiCE 103,26 MB FERiCE 2022-11-29
 Pure_Wrath-Hymn_To_The_Woeful_Hearts-(DMP0214)-CD-2022-FERiCE 86,58 MB FERiCE 2022-11-29
 Sole_Syndicate-Into_The_Flames-(SC_412-0)-CD-2022-FERiCE 132,29 MB FERiCE 2022-11-29
 Spiral_Wounds-Shadows-(GOUDJ118)-CD-2022-FERiCE 90,68 MB FERiCE 2022-11-29
 Stormruler-Sacred_Rites_and_Black_Magick-(NPR1162DP)-CD-2022-FERiCE 149,93 MB FERiCE 2022-11-29
 Tankard-Pavlovs_Dawgz-(REAPER040)-CD-2022-FERiCE 111,35 MB FERiCE 2022-11-29
 Bolverk-Uaar-(WHD344)-CD-2022-FERiCE 89,36 MB FERiCE 2022-11-29
 Killer_Kings-Burn_For_Love-(FR_CD_1258)-CD-2022-FERiCE 97,94 MB FERiCE 2022-11-29
 Lita_Ford-Live_and_Deadly-(CLO2632)-REMASTERED-CD-2022-FERiCE 123,13 MB FERiCE 2022-11-29
 Michael_Schenker-Rock_Shock-(MB_61556)-CD-2022-FERiCE 117,16 MB FERiCE 2022-11-29
 Nightrage-Abyss_Rising-(DZCD101)-CD-2022-FERiCE 78,03 MB FERiCE 2022-11-29
 Young_Hu-Brief_Encounter-(TITL022)-WEB-2022-wAx 26,71 MB wAx 2022-11-29
 Metronomy-Small_World-Special_Edition-WEB-2022-MARR 83,09 MB MARR 2022-11-29
 Venom-In_Nomine_Satanas__40_Years_In_Sodom-(BMGCAT666CDBOX)-REMASTERED_BOXSET-6CD-2022-FERiCE 581,93 MB FERiCE 2022-11-29
 Modern_Studies-Cassandra-WEB-2022-MARR 65,50 MB MARR 2022-11-29
 Armored_Saint-Delirious_Nomad-(3984-15822-2)-REMASTERED-CD-2022-FERiCE 84,22 MB FERiCE 2022-11-29
 Blind_Illusion-Wrath_Of_The_Gods-(HHR_2022-48)-CD-2022-FERiCE 104,39 MB FERiCE 2022-11-29
 Blood_God__Debauchery-Demons_Of_Rocknroll-(MAS_DP1262)-LIMITED_EDITION-2CD-2022-FERiCE 155,21 MB FERiCE 2022-11-29
 Contour-Onwards-WEB-2022-ENRiCH 81,21 MB ENRiCH 2022-11-29
 Ulla-Foam-WEB-2022-ENRiCH 91,51 MB ENRiCH 2022-11-29
 isomonstrosity-isomonstrosity-WEB-2022-ENRiCH 65,10 MB ENRiCH 2022-11-29
 Jacob_Van_Hage_And_Asino-Amsterdam_Is_On_Fire_(Extended_Mix)-(FLASH261)-SINGLE-WEB-2022-AOV 11,18 MB AOV 2022-11-29
 Tedeschi_Trucks_Band-I_Am_The_Moon_III._The_Fall-24-192-WEB-FLAC-2022-OBZEN 1,11 GB OBZEN 2022-11-29
 Busta_Rhymes-Gimme_Some_More-(E3782CD)-CDM-FLAC-1998-CUSTODES 58,47 MB CUSTODES 2022-11-29
 Busta_Rhymes-Break_Ya_Neck-(74321913612)-CDM-FLAC-2001-CUSTODES 93,49 MB CUSTODES 2022-11-29
 Tedeschi_Trucks_Band-I_Am_The_Moon_IV._Farewell-24-192-WEB-FLAC-2022-OBZEN 1.001,33 MB OBZEN 2022-11-29
 Tedeschi_Trucks_Band-I_Am_The_Moon_I._Crescent-24-192-WEB-FLAC-2022-OBZEN 1,28 GB OBZEN 2022-11-29
 Tedeschi_Trucks_Band-I_Am_The_Moon_II._Ascension-24-192-WEB-FLAC-2022-OBZEN 1,22 GB OBZEN 2022-11-29
 EMBRZ-Something_To_Say-(TNH145D)-SINGLE-WEB-2022-AFO 9,91 MB AFO 2022-11-29
 Amyl_And_The_Sniffers-Guided_By_Angels_(2022_ARIA_Awards)-720p-x264-2022-SRPx 103,57 MB SRPx 2022-11-29
 Baker_Boy-Meditjin_(2022_ARIA_Awards)-720p-x264-2022-SRPx 167,25 MB SRPx 2022-11-29
 Casey_Donovan_And_Dami_Im-The_Seekers_Tribute_(2022_ARIA_Awards)-720p-x264-2022-SRPx 127,12 MB SRPx 2022-11-29
 Flume_ft_May-A-Say_Nothing_(2022_ARIA_Awards)-720p-x264-2022-SRPx 125,36 MB SRPx 2022-11-29
 Fontaines_D.C.-Echoes_with_Jehnny_Beth_(2020)-1080p-x264-2020-SRP 1.019,69 MB SRP 2022-11-29
 Jessica_Mauboy_ft_VA-One_Song_(2022_ARIA_Awards)-720p-x264-2022-SRPx 114,21 MB SRPx 2022-11-29
 Natalie_Imbruglia_And_Tones_And_I-Olivia_Newton-John_Tribute_(2022_ARIA_Awards)-720p-x264-2022-SRPx 217,56 MB SRPx 2022-11-29
 Rufus_Du_Sol-On_My_Knees_(2022_ARIA_Awards)-720p-x264-2022-SRPx 115,51 MB SRPx 2022-11-29
 Vance_Joy-Clarity_(2022_ARIA_Awards)-720p-x264-2022-SRPx 117,95 MB SRPx 2022-11-29
 Charlie_Puth-Loser_(The_Graham_Norton_Show_2022-11-25)-DDC-1080p-h264-2022-SRPx 246,71 MB SRPx 2022-11-29
 VA-Deep_Structures_EP_XII-(KOSMOS152DGTL)-WEB-2022-PTC 69,35 MB PTC 2022-11-29
 VA-VA_2_Universos-(TWVA004)-WEB-2022-PTC 196,57 MB PTC 2022-11-29
 Mauro_Pierotti-Euphoria-(AR098)-WEB-2022-PTC 28,22 MB PTC 2022-11-29
 DJ_Shufflemaster-Imageforum-(TRESOR167S1)-SINGLE-WEB-2022-PTC 13,54 MB PTC 2022-11-29
 Pablo_Moriego-Nevermore-(ADR539)-SINGLE-WEB-2022-PTC 8,64 MB PTC 2022-11-29
 Sunroof-January_2-(I1PSST6)-SINGLE-WEB-2022-PTC 18,55 MB PTC 2022-11-29
 Rill-Passionate_Kisses-(DR023)-WEB-2022-PTC 36,42 MB PTC 2022-11-29
 Sigabort-Blood_Bomb-(WLMH085)-WEB-2022-PTC 70,03 MB PTC 2022-11-29
 Joda-No_One_Walks_Away_(PROFF_Remix)-(ANJ858D)-WEB-2022-PTC_INT 59,42 MB PTC_INT 2022-11-29
 Orion-Control_Symmetry-(ATNM020)-WEB-2022-PTC 50,18 MB PTC 2022-11-29
 A373-Generation_EP-(AFR013)-WEB-2020-PTC 35,83 MB PTC 2022-11-29
 Ado_(Col)-Sprono_EP-(AFR011)-WEB-2020-PTC 35,83 MB PTC 2022-11-29
 AVV-Geek_EP-(AFR027)-WEB-2022-PTC 26,25 MB PTC 2022-11-29
 Azogiar-Reven_EP-(AFR008)-WEB-2020-PTC 25,14 MB PTC 2022-11-29
 Badpact-Occiso_EP-(AFR016)-WEB-2021-PTC 31,63 MB PTC 2022-11-29
 Cristian_Glitch-Subconcience_EP-(AFR020)-WEB-2021-PTC 43,61 MB PTC 2022-11-29
 Dartkrait-Escultura_De_Craneo_EP-(AFR006)-WEB-2020-PTC 25,14 MB PTC 2022-11-29
 Dartkrait-Sparrow_EP-(AFR021)-WEB-2021-PTC 42,17 MB PTC 2022-11-29
 Ekin_Music-Psycho_Minds_EP-(AFR030)-WEB-2022-PTC_INT 27,37 MB PTC_INT 2022-11-29
 F411-Strange_EP-(AFR018)-WEB-2021-PTC 36,37 MB PTC 2022-11-29
 Felipe_Brmudz-Alien_Skin_EP-(AFR007)-WEB-2020-PTC 27,83 MB PTC 2022-11-29
 Gallego_and_Mr._Shady-Apacible_EP-(AFR001)-WEB-2020-PTC 74,14 MB PTC 2022-11-29
 Gino_Moceton-XT3402_EP-(AFR023)-WEB-2021-PTC 31,81 MB PTC 2022-11-29
 Hate_Society-Cavia_Porcellus_EP-(AFR004)-WEB-2020-PTC 25,01 MB PTC 2022-11-29
 Jom_and_Mau-Mentale_EP-(AFR034)-WEB-2022-PTC 74,42 MB PTC 2022-11-29
 JulianBo-Political_Rats_EP-(AFR036)-WEB-2022-PTC 26,88 MB PTC 2022-11-29
 Keah-Even_Deeper_EP-(AFR015)-WEB-2021-PTC 49,64 MB PTC 2022-11-29
 Kinetic_KNTC-Obscure_EP-(AFR009)-WEB-2020-PTC 33,55 MB PTC 2022-11-29
 Lec_Saint-Dimensions_EP-(AFR038)-WEB-2022-PTC 32,07 MB PTC 2022-11-29
 Mr._Shady-Estrafalario-(AFR012)-WEB-2020-PTC 53,74 MB PTC 2022-11-29
 Pablo_Caballero_and_Tankhamun-Akenaton_EP-(AFR014)-WEB-2020-PTC 30,36 MB PTC 2022-11-29
 Phyrgian_and_Nollie-Deja_Vu_EP-(AFR002)-WEB-2020-PTC 53,16 MB PTC 2022-11-29
 Paul_Basshell-Mithomane_EP-(AFR017)-WEB-2021-PTC 47,03 MB PTC 2022-11-29
 R66-No_Rikther_EP-(AFR035)-WEB-2022-PTC 71,17 MB PTC 2022-11-29
 Pau_Ewan-Inward_EP-(AFR026)-WEB-2022-PTC 29,91 MB PTC 2022-11-29
 R66-R_Conection_EP-(AFR029)-WEB-2022-PTC 29,20 MB PTC 2022-11-29
 Sarias-XX_EP-(AFR005)-WEB-2020-PTC 30,19 MB PTC 2022-11-29
 SXNCT-L40XX-(AFR010)-WEB-2020-PTC 35,10 MB PTC 2022-11-29
 T.K.N.Z-Instrument_Of_Control_EP-(AFR003)-WEB-2020-PTC 44,68 MB PTC 2022-11-29
 Venedetty-Orbital_Stage-(AFR028)-WEB-2022-PTC 171,18 MB PTC 2022-11-29
 Virus_D.D.D-Signal_EP-(AFR024)-WEB-2021-PTC 23,69 MB PTC 2022-11-29
 Yuuta-Kasekage_EP-(AFR031)-WEB-2022-PTC 29,54 MB PTC 2022-11-29
 Zwick-Cosmic_Heroes_EP-(AFR025)-WEB-2022-PTC 21,75 MB PTC 2022-11-29
 Mauricio_Brigante-An_Elephant_Called_Oshun-(B068)-WEB-2022-PTC 28,01 MB PTC 2022-11-29
 Coffee_Shop_Jungle-Catalyst-(CSJ019B)-WEB-2022-PTC 9,23 MB PTC 2022-11-29
 Byzantine-Black_Sea_Codex-EP-WEB-2022-BLEEDiNG 66,04 MB BLEEDiNG 2022-11-29
 Wretched_Inferno-Cacophony_of_Filth-WEB-2022-BLEEDiNG 79,43 MB BLEEDiNG 2022-11-29
 Birch-Pray_For_You-(NCS1184)-SINGLE-WEB-2022-PTC 6,57 MB PTC 2022-11-29
 Lec_Saint-Revolution_EP-(AFR033)-WEB-2022-PTC 32,66 MB PTC 2022-11-29
 Luis_Odem-Lost_Voice_EP-(AFR019)-WEB-2021-PTC 44,16 MB PTC 2022-11-29
 Kaese_Kochen-Eternal__Digital-(BSSEP047)-WEB-2022-PTC 27,97 MB PTC 2022-11-29

Work time: 0.01692 seconds

Contact: 0day@bk.ru

Рейтинг@Mail.ru